Regional Weather Roundup
Issued by NWS

Home | Current Version | Previous Version | Text Only | Print | Product List | Glossary On
Versions: 1 2 3 4 5 6 7 8 9 10 11 12 13 14 15 16 17 18 19 20 21 22 23 24 25 26 27 28 29 30 31 32 33 34 35 36 37 38 39 40 41 42 43 44 45 46 47 48 49 50
000
ASPQ40 PGUM 230212
RWRPQ
WEATHER ROUNDUP FOR THE MARIANAS AND MICRONESIA
NATIONAL WEATHER SERVICE TIYAN GU
1200 PM CHST WED JUL 23 2014

GUZ001>004-230300-
MARIANA ISLANDS-

CITY           SKY/WX    TMP DP  RH WIND       PRES   REMARKS
GUAM AIRPORT   MOSUNNY   88  79  74 E10       29.80F HX 102
ANDERSEN AFB   MOSUNNY   86  79  79 E10       29.80F HX  99
ROTA AIRPORT   MOSUNNY   86  77  74 E13       29.82F HX  97
TINIAN AP      PTSUNNY   82  77  83 NE12      29.80  HX  91
SAIPAN AP      MOSUNNY   88  79  74 SE9       29.81F HX 102

$$

PMZ161-230300-
REPUBLIC OF PALAU-

CITY           SKY/WX    TMP DP  RH WIND       PRES   REMARKS
KOROR AP       PTSUNNY   86  81  84 W12       29.84F HX 102
KOROR WSO      CLOUDY    88  79  74 W10       29.84S HX 102

$$

PMZ171>174-230300-
FEDERATED STATES OF MICRONESIA-

CITY           SKY/WX    TMP DP  RH WIND       PRES   REMARKS
YAP AIRPORT    PTSUNNY   84  73  70 W10       29.80S HX  91
CHUUK AP       CLOUDY    86  81  84 SE7       29.73F HX 102
POHNPEI AP     CLOUDY    84  75  74 S5        29.75F HX  92
POHNPEI WSO    CLOUDY    84  79  84 W3        29.78F HX  96
KOSRAE AP      NOT AVBL

$$

PMZ181-230300-
REPUBLIC OF THE MARSHALL ISLANDS-

CITY           SKY/WX    TMP DP  RH WIND       PRES   REMARKS
KWAJALEIN AP   CLOUDY    86  73  66 S6        29.74F HX  93
MAJURO AP      NOT AVBL
MAJURO WSO     NOT AVBL

$$



USA.gov is the U.S. government's official web portal to all federal, state and local government web resources and services.